Location: Northam
(31.6525°S, 116.6655°E)
Time: 08:59:15
(UTC+08:00)

N. Korean satellite - Pass Details

Date: 17 May 2021
Orbit: 450 x 500 km, 97.2° (Epoch: 13 June)

Event Time Altitude Azimuth Distance (km) Brightness Sun altitude
Rises 04:49:54 0° 14° (NNE) 2,473 10.4 -26.6°
Reaches altitude 10° 04:51:54 10° 15° (NNE) 1,614 9.4 -26.2°
Enters shadow 04:52:33 15° 16° (NNE) 1,342 9.0 -26.0°
